Location: Kelshall
(52.0000°N, 0.0500°W)
Time: 01:12:17
(UTC+00:00)

Meteor 1-15 Rocket - Pass Details

Date: 18 January 2021
Orbit: 840 x 907 km, 81.2° (Epoch: 03 March)

Event Time Altitude Azimuth Distance (km) Brightness Sun altitude
Exits shadow 04:19:25 43° 37° (NE) 1,179 5.1 -33.0°
Drops below altitude 10° 04:23:21 10° 18° (NNE) 2,510 6.9 -32.4°
Sets 04:25:50 0° 15° (NNE) 3,461 7.7 -32.0°
